Weather History for Albion, NE

Change the Weather History Date:

Thursday, July 25, 2013

  Actual Average (KOFK) Record (KOFK)
Temperature  
Mean Temperature 75 °F 75 °F  
Max Temperature 85 °F 86 °F 112 °F (1936)
Min Temperature 65 °F 64 °F 44 °F (1911)
Degree Days  
Heating Degree Days 0 0  
Month to date heating degree days 0  
Since 1 June heating degree days 30  
Since 1 July heating degree days 0  
Cooling Degree Days 10 10  
Month to date cooling degree days 248  
Year to date cooling degree days 495  
Since 1 June cooling degree days 434  
Growing Degree Days 25 (Base 50)    
Moisture  
Dew Point 63 °F    
Average Humidity 77    
Maximum Humidity 99    
Minimum Humidity 44    
Precipitation  
Precipitation 1.16 in 0.11 in 2.64 in (1981)
Month to date precipitation 2.71  
Year to date precipitation 16.67  
Snow  
Snow 0.00 in 0.00 in - ()
Month to date snowfall 0.0  
Since 1 July snowfall 0.0  
Snow Depth -    
Sea Level Pressure  
Sea Level Pressure 30.03 in    
Wind  
Wind Speed 4 mph (South)    
Max Wind Speed 16 mph    
Max Gust Speed 24 mph    
Visibility 8 miles    
Events Rain , Thunderstorm    
T = Trace of Precipitation, MM = Missing Value Source: NWS Daily Summary

Daily Weather History Graph

Daily Weather History Graph

Search for Another Location

Airport:

Trip Planner

Search our weather history database for the weather conditions in past years. The results will help you decide how hot, cold, wet, or windy it might be!

Date:

Astronomy

Jul. 25, 2013 Rise Set
Actual Time 6:19 AM CDT 8:57 PM CDT
Civil Twilight 5:47 AM CDT 9:29 PM CDT
Nautical Twilight 5:07 AM CDT 10:09 PM CDT
Astronomical Twilight 4:22 AM CDT 10:54 PM CDT
Moon 10:34 PM CDT (7/25) 9:54 AM CDT (7/25)
Length of Visible Light 15h 41m
Length of Day
14h 37m
Waning Gibbous, 88% of the Moon is Illuminated
Jul 25
Waning Gibbous
Jul 29
Last Quarter
Aug 6
New
Aug 14
First Quarter
Aug 20
Full

Hourly Weather History & Observations

Time (CDT) Temp. Heat Index Dew Point Humidity Pressure Visibility Wind Dir Wind Speed Gust Speed Precip Events Conditions
12:15 AM 68.5 °F - 64.0 °F 85% 30.06 in 10.0 mi ESE 3.5 mph - N/A   Scattered Clouds
12:35 AM 68.4 °F - 64.0 °F 86% 30.06 in 10.0 mi Calm Calm - N/A   Mostly Cloudy
12:55 AM 68.0 °F - 64.0 °F 87% 30.06 in 10.0 mi ESE 3.5 mph - N/A   Scattered Clouds
1:15 AM 67.6 °F - 63.7 °F 87% 30.07 in 10.0 mi Calm Calm - N/A   Scattered Clouds
1:35 AM 67.3 °F - 63.9 °F 89% 30.06 in 10.0 mi SE 3.5 mph - N/A   Scattered Clouds
1:55 AM 67.3 °F - 63.7 °F 88% 30.06 in 10.0 mi Calm Calm - N/A   Scattered Clouds
2:15 AM 66.7 °F - 63.9 °F 90% 30.05 in 7.0 mi Calm Calm - N/A   Scattered Clouds
2:35 AM 66.4 °F - 63.3 °F 90% 30.05 in 7.0 mi Calm Calm - N/A   Clear
2:55 AM 66.2 °F - 63.1 °F 90% 30.05 in 10.0 mi Calm Calm - N/A   Clear
3:15 AM 66.2 °F - 63.1 °F 90% 30.05 in 7.0 mi SE 4.6 mph - N/A   Scattered Clouds
3:35 AM 66.4 °F - 63.0 °F 89% 30.05 in 10.0 mi SE 3.5 mph - N/A   Scattered Clouds
3:55 AM 66.2 °F - 62.8 °F 89% 30.05 in 7.0 mi SSE 5.8 mph - N/A   Scattered Clouds
4:15 AM 65.7 °F - 62.8 °F 90% 30.03 in 7.0 mi ESE 5.8 mph - N/A   Scattered Clouds
4:35 AM 65.8 °F - 62.6 °F 89% 30.02 in 7.0 mi ESE 6.9 mph - N/A   Clear
4:55 AM 65.8 °F - 62.6 °F 89% 30.01 in 7.0 mi ESE 6.9 mph - N/A   Scattered Clouds
5:15 AM 65.5 °F - 62.6 °F 90% 30.02 in 7.0 mi SSE 4.6 mph - N/A   Mostly Cloudy
5:35 AM 65.3 °F - 62.6 °F 91% 30.02 in 7.0 mi ESE 3.5 mph - N/A   Scattered Clouds
5:55 AM 65.3 °F - 62.6 °F 91% 30.02 in 7.0 mi SE 3.5 mph - N/A   Clear
6:15 AM 65.3 °F - 62.8 °F 92% 30.02 in 5.0 mi Calm Calm - N/A   Clear
6:35 AM 65.3 °F - 62.6 °F 91% 30.01 in 5.0 mi SE 4.6 mph - N/A   Clear
6:55 AM 65.5 °F - 62.8 °F 91% 30.02 in 5.0 mi Calm Calm - N/A   Clear
7:15 AM 65.8 °F - 62.8 °F 90% 30.02 in 5.0 mi SE 4.6 mph - N/A   Clear
7:35 AM 66.2 °F - 63.0 °F 89% 30.03 in 5.0 mi SE 3.5 mph - N/A   Clear
7:55 AM 67.6 °F - 63.9 °F 88% 30.03 in 7.0 mi SSW 3.5 mph - N/A   Clear
8:15 AM 68.5 °F - 63.9 °F 85% 30.03 in 10.0 mi SSW 3.5 mph - N/A   Clear
8:35 AM 70.2 °F - 63.9 °F 80% 30.03 in 10.0 mi WSW 3.5 mph - N/A   Clear
8:55 AM 70.7 °F - 64.2 °F 80% 30.03 in 10.0 mi NW 3.5 mph - N/A   Clear
9:15 AM 72.9 °F - 63.9 °F 73% 30.03 in 10.0 mi Calm Calm - N/A   Clear
9:35 AM 76.5 °F - 63.1 °F 63% 30.04 in 10.0 mi WSW 6.9 mph - N/A   Clear
9:55 AM 76.8 °F - 62.1 °F 60% 30.04 in 10.0 mi WSW 6.9 mph - N/A   Clear
10:15 AM 79.7 °F - 61.3 °F 53% 30.04 in 10.0 mi SW 6.9 mph - N/A   Clear
10:35 AM 80.8 °F 81.3 °F 59.4 °F 48% 30.03 in 10.0 mi WSW 6.9 mph - N/A   Clear
10:55 AM 80.8 °F 81.3 °F 59.4 °F 48% 30.03 in 10.0 mi SW 12.7 mph - N/A   Clear
11:15 AM 80.4 °F 81.3 °F 61.0 °F 51% 30.03 in 10.0 mi SSW 9.2 mph - N/A   Clear
11:35 AM 80.2 °F 80.6 °F 57.6 °F 46% 30.03 in 10.0 mi WSW 4.6 mph - N/A   Clear
11:55 AM 81.5 °F 81.7 °F 58.8 °F 46% 30.03 in 10.0 mi SW 5.8 mph - N/A   Clear
12:15 PM 82.4 °F 82.9 °F 61.2 °F 48% 30.03 in 10.0 mi South 11.5 mph - N/A   Clear
12:35 PM 81.7 °F 82.2 °F 60.4 °F 48% 30.02 in 10.0 mi SSW 10.4 mph - N/A   Clear
12:55 PM 82.0 °F 82.5 °F 60.6 °F 48% 30.02 in 10.0 mi SSW 6.9 mph - N/A   Clear
1:15 PM 82.8 °F 83.1 °F 60.6 °F 47% 30.02 in 10.0 mi SSW 5.8 mph - N/A   Clear
1:35 PM 82.9 °F 83.8 °F 62.6 °F 50% 30.01 in 10.0 mi SSW 9.2 mph - N/A   Clear
1:55 PM 83.5 °F 84.1 °F 61.9 °F 48% 30.01 in 10.0 mi SSW 8.1 mph - N/A   Clear
2:15 PM 83.7 °F 84.3 °F 61.9 °F 48% 30.01 in 10.0 mi WSW 9.2 mph - N/A   Clear
2:35 PM 83.5 °F 84.5 °F 62.8 °F 50% 30.00 in 10.0 mi SW 5.8 mph - N/A   Clear
2:55 PM 84.0 °F 84.7 °F 62.4 °F 48% 29.99 in 10.0 mi SSW 6.9 mph - N/A   Clear
3:15 PM 83.8 °F 84.5 °F 62.1 °F 48% 29.99 in 10.0 mi South 9.2 mph - N/A   Scattered Clouds
3:35 PM 84.2 °F 85.4 °F 63.5 °F 50% 29.99 in 10.0 mi SSW 9.2 mph - N/A   Mostly Cloudy
3:55 PM 84.6 °F 85.4 °F 62.8 °F 48% 29.99 in 10.0 mi SW 10.4 mph - N/A   Mostly Cloudy
4:15 PM 85.1 °F 85.2 °F 60.8 °F 44% 29.97 in 10.0 mi SW 10.4 mph - N/A Thunderstorm Scattered Clouds
4:35 PM 82.6 °F 83.4 °F 62.4 °F 50% 29.98 in 10.0 mi SSW 8.1 mph - N/A Thunderstorm Thunderstorm
4:55 PM 81.5 °F 82.5 °F 62.1 °F 52% 29.98 in 7.0 mi SW 8.1 mph - N/A   Overcast
5:15 PM 73.8 °F - 65.3 °F 75% 29.98 in 10.0 mi North 13.8 mph 24.2 mph N/A Rain Light Rain
5:35 PM 71.2 °F - 66.2 °F 84% 29.99 in 7.0 mi North 16.1 mph - 0.01 in Rain , Thunderstorm Rain
5:55 PM 70.0 °F - 66.2 °F 88% 30.01 in 2.5 mi North 5.8 mph - 0.20 in Rain , Thunderstorm Heavy Thunderstorms and Rain
6:15 PM 66.6 °F - 61.9 °F 85% 30.01 in 1.2 mi North 4.6 mph 10.4 mph 0.50 in Rain , Thunderstorm Heavy Thunderstorms and Rain
6:35 PM 68.2 °F - 64.6 °F 88% 29.99 in 1.8 mi Calm Calm - 0.75 in Rain Heavy Rain
6:55 PM 68.2 °F - 64.8 °F 89% 29.99 in 10.0 mi Calm Calm - 0.76 in Rain Light Rain
7:15 PM 69.3 °F - 65.8 °F 89% 30.01 in 10.0 mi Calm Calm - N/A   Overcast
7:35 PM 69.6 °F - 67.3 °F 92% 30.03 in 10.0 mi NE 8.1 mph - N/A   Overcast
7:55 PM 70.2 °F - 66.2 °F 87% 30.02 in 10.0 mi East 4.6 mph - N/A   Mostly Cloudy
8:15 PM 70.0 °F - 65.7 °F 86% 30.03 in 10.0 mi East 4.6 mph - N/A   Scattered Clouds
8:35 PM 69.4 °F - 65.7 °F 88% 30.03 in 10.0 mi East 3.5 mph - N/A   Mostly Cloudy
8:55 PM 69.3 °F - 65.7 °F 88% 30.02 in 10.0 mi SE 4.6 mph - N/A   Mostly Cloudy
9:15 PM 69.4 °F - 66.6 °F 91% 30.04 in 2.0 mi Calm Calm - 0.17 in Rain Heavy Rain
9:35 PM 68.9 °F - 67.5 °F 95% 30.04 in 7.0 mi Calm Calm - 0.20 in Rain Light Rain
9:55 PM 68.4 °F - 67.5 °F 97% 30.04 in 7.0 mi South 3.5 mph - 0.20 in   Scattered Clouds
10:15 PM 68.0 °F - 67.3 °F 98% 30.05 in 5.0 mi Calm Calm - N/A   Clear
10:35 PM 68.0 °F - 67.1 °F 97% 30.05 in 4.0 mi Calm Calm - N/A   Clear
10:55 PM 67.5 °F - 66.9 °F 98% 30.06 in 7.0 mi Calm Calm - N/A   Clear
11:15 PM 67.1 °F - 66.6 °F 98% 30.06 in 5.0 mi NNW 3.5 mph - N/A   Clear
11:35 PM 66.6 °F - 66.2 °F 99% 30.06 in 5.0 mi NW 3.5 mph - N/A   Clear
11:55 PM 65.5 °F - 65.1 °F 99% 30.06 in 1.5 mi Calm Calm - N/A   Scattered Clouds